Location: Asheville, NC
(35.6000°N, 82.5500°W)
Time: 20:31:18
(UTC-04:00)

CUTE 1.7 + AOD 2 - Pass Details

Date: 11 March 2018
Orbit: 594 x 613 km, 97.5° (Epoch: 20 June)

Event Time Altitude Azimuth Distance (km) Brightness Sun altitude
Rises 20:30:36 0° 201° (SSW) 2,814 ? -12.2°
Reaches altitude 10° 20:33:16 10° 219° (SW) 1,918 ? -12.8°
Maximum altitude 20:36:16 19° 266° (W) 1,421 ? -13.4°
Drops below altitude 10° 20:39:18 10° 312° (NW) 1,933 ? -14.0°
Sets 20:42:00 0° 330° (NNW) 2,843 ? -14.5°
